COSMOS 2039

Satellite information

Favourite Embed

Satellite Type and Status

PAYLOADIN ORBIT

Key statistics

Satellite COSMOS 2039 at a glance.

Uptime

13194

Days in orbit

Revolutions

≈ 12.7

Per day

Orbit

LEO

Low Earth Orbit

Inclination

82.6

Latest

Satellite identification and parameters

Extended collection of information and parameters for COSMOS 2039.

Object identification

Identified? True

Debris? False

Object name: COSMOS 2039

International designator: 1989-074B

Object number (NORAD): 20233

Object ID (CCSDS): 20233

Country: COMMONWEALTH OF INDEPENDENT STATES (CIS)

Current information (Y/N): Y

RCS size: LARGE

Orbital parameters

Period: 113.719 minutes

Inclination: 82.581 deg

SMA: 7775.286 km

Apoapsis: 1408.764 km

Periapsis: 1385.538 km

RAAN: 332.8726 deg

Eccentricy: 0.00149359

Argument of periapsis: 161.7735 deg

Mean anomaly: 353.249 deg

Mean motion: 12.6627549 rev/day

Mean motion (dot): 0.00000021 rev/day2

B* drag term: 0.000051805542 1/REarth

Two-line elements (TLE)

Creation date: Oct. 28, 2025, 7:11 p.m.

Reference frame: TEME

Reference center: EARTH

Epoch: Oct. 28, 2025, 1:30 p.m. UTC

TLE line 0: 0 COSMOS 2039

TLE line 1: 1 20233U 89074B 25301.56271293 .00000021 00000-0 51806-4 0 9991

TLE line 2: 2 20233 82.5810 332.8726 0014936 161.7735 353.2490 12.66275490669289

Live tracking on map

Real-time ground track for satellite COSMOS 2039.

In-orbit conjunctions

There are no conjunctions computed for COSMOS 2039, at the moment. Check back to stay up to date, as we update our databases every day.

Go to all conjunctions

Associated space launch

Second generation store-dump military communications satellite

COSMOS 2039 was lifted into orbit during the mission ‘Tsiklon-3 | Strela-3 43 to 48’, on board a Tsiklon-3 space rocket.

The launch took place on Sept. 14, 1989, 9:49 a.m. from 32/1.

For more information about the launch, click the button.

Launch to space Tsiklon-3 | Strela-3 43 to 48
Tsiklon-3 | Strela-3 43 to 48

Agency: N/A

Status: Launch Successful

Launch date: Sept. 14, 1989, 9:49 a.m. UTC

Rocket: Tsiklon-3

Launch pad: 32/1

Location: Plesetsk Cosmodrome, Russian Federation

...

Latest news about this satellite

There are no fresh news available about this satellite. Check back as we update our databases every day.


Newsletter sign-up

Weekly statistics, charts and insights to help you stay on top of the space industry.